Home   Weather   Brasilia   Past weeks
Flag for Brazil

Past Weather in Brasilia, Distrito Federal, Brazil — Yesterday and Last 2 Weeks

Now
61 °F

Sunny.


Feels Like: 61 °F
Forecast: 73 / 58 °F
Wind: 9 mph from East

Location: Brasilia Aeroporto

Current Time: Jul 22, 2019 at 9:17:16 am

Latest Report: Jul 22, 2019 at 8:00 am


Visibility: 10 mi

Pressure: 30.27 "Hg (26.61 "Hg at 1091m altitude)

Humidity: 72%

Dew Point: 52 °F

Location of BrasiliaLocation

Past Weather in Brasilia — Graph

°F

Brasilia Temperature Yesterday

Maximum temperature yesterday: 75 °F (at 1:00 pm)
Minimum temperature yesterday: 55 °F (at 3:00 am)
Average temperature yesterday: 66 °F

High & Low Weather Summary for the Past Weeks

 TemperatureHumidityPressure
High86 °F (Jul 16, 2:00 pm)94% (Jul 9, 3:00 am)30.33 "Hg (Jul 9, 3:00 am)
Low48 °F (Jul 10, 6:00 am)21% (Jul 14, 5:00 pm)30.07 "Hg (Jul 15, 4:00 pm)
Average67 °F56%30.19 "Hg
* Reported Jul 7 8:00 am — Jul 22 8:00 am, Brasilia. Weather by CustomWeather, © 2019

Note: Actual official high and low records may vary slightly from our data, if they occured in-between our weather recording intervals... More about our weather records

Advertising

Brasilia Weather History for the Previous 24 Hours

Scroll right to see more
 ConditionsComfort  
Time TempWeatherWind HumidityBarometerVisibility
8:00 am
Mon, Jul 22
61 °FSunny.9 mph72%30.27 "Hg10 mi
7:00 am61 °FSunny.6 mph72%30.24 "Hg10 mi
6:00 am61 °FClear.9 mph77%30.21 "Hg10 mi
5:00 am61 °FClear.8 mph77%30.18 "Hg10 mi
4:00 am61 °FClear.6 mph77%30.18 "Hg10 mi
3:00 am63 °FClear.6 mph73%30.18 "Hg10 mi
2:00 am64 °FClear.6 mph68%30.18 "Hg10 mi
1:00 am64 °FClear.3 mph68%30.21 "Hg10 mi
12:00 am64 °FClear.9 mph68%30.21 "Hg10 mi
11:00 pm
Sun, Jul 21
66 °FClear.8 mph68%30.24 "Hg10 mi
10:00 pm68 °FClear.5 mph60%30.24 "Hg10 mi
9:00 pm70 °FPassing clouds.7 mph57%30.21 "HgN/A
8:00 pm72 °FPassing clouds.7 mph57%30.21 "HgN/A
7:00 pm72 °FPassing clouds.6 mph53%30.18 "HgN/A
6:00 pm73 °FPassing clouds.3 mph47%30.18 "HgN/A
5:00 pm75 °FScattered clouds.7 mph44%30.15 "HgN/A
4:00 pm75 °FScattered clouds.9 mph44%30.15 "HgN/A
3:00 pm75 °FPartly sunny.10 mph44%30.18 "HgN/A
2:00 pm75 °FPartly sunny.13 mph47%30.18 "HgN/A
1:00 pm75 °FPartly sunny.12 mph47%30.21 "HgN/A
12:00 pm72 °FPartly sunny.15 mph57%30.24 "HgN/A
11:00 am70 °FPartly sunny.16 mph60%30.24 "HgN/A
10:00 am68 °FScattered clouds.16 mph60%30.24 "HgN/A
9:00 am63 °FSunny.15 mph73%30.24 "Hg10 mi
Weather by CustomWeather, © 2019

See weather overview